Time,TemperatureF,DewpointF,PressureIn,WindDirection,WindDirectionDegrees,WindSpeedMPH,WindSpeedGustMPH,Humidity,HourlyPrecipIn,Conditions,Clouds,dailyrainin,SoftwareType,DateUTC
2013-02-10 00:02:00,11.8,-99.9,-100.00,North,-999,-999.0,-999.0,48,-99.99,,,-99.99,,2013-02-10 05:02:00,
2013-02-10 00:04:00,11.8,-99.9,-100.00,North,-999,-999.0,-999.0,49,-99.99,,,-99.99,,2013-02-10 05:04:00,
2013-02-10 00:09:00,11.7,-99.9,-100.00,North,-999,-999.0,-999.0,49,-99.99,,,-99.99,,2013-02-10 05:09:00,
2013-02-10 00:14:00,11.5,-6.4,-100.00,North,-999,-999.0,-999.0,50,-99.99,,,-99.99,,2013-02-10 05:14:00,
2013-02-10 00:17:00,11.5,-99.9,-100.00,North,-999,-999.0,-999.0,49,-99.99,,,-99.99,,2013-02-10 05:17:00,
2013-02-10 00:22:00,11.7,-99.9,-100.00,North,-999,-999.0,-999.0,49,-99.99,,,-99.99,,2013-02-10 05:22:00,
2013-02-10 00:27:00,11.5,-99.9,-100.00,North,-999,-999.0,-999.0,49,-99.99,,,-99.99,,2013-02-10 05:27:00,
2013-02-10 00:32:00,11.5,-99.9,-100.00,North,-999,-999.0,-999.0,48,-99.99,,,-99.99,,2013-02-10 05:32:00,
2013-02-10 00:37:00,11.3,-99.9,-100.00,North,-999,-999.0,-999.0,48,-99.99,,,-99.99,,2013-02-10 05:37:00,
2013-02-10 00:42:00,11.1,-99.9,-100.00,North,-999,-999.0,-999.0,48,-99.99,,,-99.99,,2013-02-10 05:42:00,
2013-02-10 00:47:00,10.9,-99.9,-100.00,North,-999,-999.0,-999.0,48,-99.99,,,-99.99,,2013-02-10 05:47:00,
2013-02-10 00:52:00,10.9,-99.9,-100.00,North,-999,-999.0,-999.0,48,-99.99,,,-99.99,,2013-02-10 05:52:00,
2013-02-10 00:57:00,10.8,-99.9,-100.00,North,-999,-999.0,-999.0,48,-99.99,,,-99.99,,2013-02-10 05:57:00,
2013-02-10 01:02:00,10.6,-99.9,-100.00,North,-999,-999.0,-999.0,49,-99.99,,,-99.99,,2013-02-10 06:02:00,
2013-02-10 01:07:00,10.4,-99.9,-100.00,North,-999,-999.0,-999.0,49,-99.99,,,-99.99,,2013-02-10 06:07:00,
2013-02-10 01:12:00,10.4,-99.9,-100.00,North,-999,-999.0,-999.0,49,-99.99,,,-99.99,,2013-02-10 06:12:00,
2013-02-10 01:17:00,10.0,-7.6,-100.00,North,-999,-999.0,-999.0,51,-99.99,,,-99.99,,2013-02-10 06:17:00,
2013-02-10 01:22:00,9.9,-7.7,-100.00,North,-999,-999.0,-999.0,51,-99.99,,,-99.99,,2013-02-10 06:22:00,
2013-02-10 01:27:00,9.7,-7.7,-100.00,North,-999,-999.0,-999.0,51,-99.99,,,-99.99,,2013-02-10 06:27:00,
2013-02-10 01:32:00,9.5,-7.5,-100.00,North,-999,-999.0,-999.0,52,-99.99,,,-99.99,,2013-02-10 06:32:00,
2013-02-10 01:37:00,9.5,-7.5,-100.00,North,-999,-999.0,-999.0,52,-99.99,,,-99.99,,2013-02-10 06:37:00,
2013-02-10 01:42:00,9.3,-7.4,-100.00,North,-999,-999.0,-999.0,53,-99.99,,,-99.99,,2013-02-10 06:42:00,
2013-02-10 01:47:00,9.1,-7.9,-100.00,North,-999,-999.0,-999.0,52,-99.99,,,-99.99,,2013-02-10 06:47:00,
2013-02-10 01:52:00,9.1,-7.8,-100.00,North,-999,-999.0,-999.0,53,-99.99,,,-99.99,,2013-02-10 06:52:00,
2013-02-10 01:57:00,9.0,-7.7,-100.00,North,-999,-999.0,-999.0,53,-99.99,,,-99.99,,2013-02-10 06:57:00,
2013-02-10 02:02:00,9.0,-7.9,-100.00,North,-999,-999.0,-999.0,53,-99.99,,,-99.99,,2013-02-10 07:02:00,
2013-02-10 02:07:00,8.8,-8.2,-100.00,North,-999,-999.0,-999.0,52,-99.99,,,-99.99,,2013-02-10 07:07:00,
2013-02-10 02:12:00,8.8,-7.6,-100.00,North,-999,-999.0,-999.0,54,-99.99,,,-99.99,,2013-02-10 07:12:00,
2013-02-10 02:17:00,8.6,-7.8,-100.00,North,-999,-999.0,-999.0,54,-99.99,,,-99.99,,2013-02-10 07:17:00,
2013-02-10 02:22:00,8.4,-8.6,-100.00,North,-999,-999.0,-999.0,52,-99.99,,,-99.99,,2013-02-10 07:22:00,
2013-02-10 02:27:00,8.4,-8.6,-100.00,North,-999,-999.0,-999.0,52,-99.99,,,-99.99,,2013-02-10 07:27:00,
2013-02-10 02:32:00,8.2,-8.7,-100.00,North,-999,-999.0,-999.0,53,-99.99,,,-99.99,,2013-02-10 07:32:00,
2013-02-10 02:37:00,8.1,-8.3,-100.00,North,-999,-999.0,-999.0,54,-99.99,,,-99.99,,2013-02-10 07:37:00,
2013-02-10 02:42:00,8.1,-8.6,-100.00,North,-999,-999.0,-999.0,53,-99.99,,,-99.99,,2013-02-10 07:42:00,
2013-02-10 02:47:00,8.1,-7.6,-100.00,North,-999,-999.0,-999.0,56,-99.99,,,-99.99,,2013-02-10 07:47:00,
2013-02-10 02:52:00,7.9,-8.1,-100.00,North,-999,-999.0,-999.0,55,-99.99,,,-99.99,,2013-02-10 07:52:00,
2013-02-10 02:57:00,7.7,-8.4,-100.00,North,-999,-999.0,-999.0,55,-99.99,,,-99.99,,2013-02-10 07:57:00,
2013-02-10 03:02:00,7.5,-8.8,-100.00,North,-999,-999.0,-999.0,54,-99.99,,,-99.99,,2013-02-10 08:02:00,
2013-02-10 03:07:00,7.5,-8.7,-100.00,North,-999,-999.0,-999.0,55,-99.99,,,-99.99,,2013-02-10 08:07:00,
2013-02-10 03:12:00,7.3,-9.1,-100.00,North,-999,-999.0,-999.0,54,-99.99,,,-99.99,,2013-02-10 08:12:00,
2013-02-10 03:17:00,7.5,-8.9,-100.00,North,-999,-999.0,-999.0,54,-99.99,,,-99.99,,2013-02-10 08:17:00,
2013-02-10 03:22:00,7.5,-8.6,-100.00,North,-999,-999.0,-999.0,55,-99.99,,,-99.99,,2013-02-10 08:22:00,
2013-02-10 03:27:00,7.7,-8.8,-100.00,North,-999,-999.0,-999.0,54,-99.99,,,-99.99,,2013-02-10 08:27:00,
2013-02-10 03:32:00,7.7,-8.9,-100.00,North,-999,-999.0,-999.0,53,-99.99,,,-99.99,,2013-02-10 08:32:00,
2013-02-10 03:37:00,7.9,-8.7,-100.00,North,-999,-999.0,-999.0,53,-99.99,,,-99.99,,2013-02-10 08:37:00,
2013-02-10 03:42:00,7.9,-8.8,-100.00,North,-999,-999.0,-999.0,53,-99.99,,,-99.99,,2013-02-10 08:42:00,
2013-02-10 03:47:00,7.7,-9.0,-100.00,North,-999,-999.0,-999.0,53,-99.99,,,-99.99,,2013-02-10 08:47:00,
2013-02-10 03:52:00,7.9,-8.7,-100.00,North,-999,-999.0,-999.0,53,-99.99,,,-99.99,,2013-02-10 08:52:00,
2013-02-10 03:57:00,7.7,-8.9,-100.00,North,-999,-999.0,-999.0,53,-99.99,,,-99.99,,2013-02-10 08:57:00,
2013-02-10 04:02:00,7.5,-9.0,-100.00,North,-999,-999.0,-999.0,54,-99.99,,,-99.99,,2013-02-10 09:02:00,
2013-02-10 04:07:00,7.3,-8.9,-100.00,North,-999,-999.0,-999.0,54,-99.99,,,-99.99,,2013-02-10 09:07:00,
2013-02-10 04:12:00,7.2,-9.0,-100.00,North,-999,-999.0,-999.0,55,-99.99,,,-99.99,,2013-02-10 09:12:00,
2013-02-10 04:17:00,7.2,-9.2,-100.00,North,-999,-999.0,-999.0,54,-99.99,,,-99.99,,2013-02-10 09:17:00,
2013-02-10 04:22:00,6.8,-9.4,-100.00,North,-999,-999.0,-999.0,55,-99.99,,,-99.99,,2013-02-10 09:22:00,
2013-02-10 04:27:00,6.8,-9.4,-100.00,North,-999,-999.0,-999.0,54,-99.99,,,-99.99,,2013-02-10 09:27:00,
2013-02-10 04:32:00,6.6,-9.3,-100.00,North,-999,-999.0,-999.0,55,-99.99,,,-99.99,,2013-02-10 09:32:00,
2013-02-10 04:37:00,6.4,-9.4,-100.00,North,-999,-999.0,-999.0,55,-99.99,,,-99.99,,2013-02-10 09:37:00,
2013-02-10 04:42:00,6.4,-9.0,-100.00,North,-999,-999.0,-999.0,57,-99.99,,,-99.99,,2013-02-10 09:42:00,
2013-02-10 04:47:00,6.3,-9.2,-100.00,North,-999,-999.0,-999.0,57,-99.99,,,-99.99,,2013-02-10 09:47:00,
2013-02-10 04:52:00,6.1,-9.2,-100.00,North,-999,-999.0,-999.0,57,-99.99,,,-99.99,,2013-02-10 09:52:00,
2013-02-10 04:57:00,5.9,-9.5,-100.00,North,-999,-999.0,-999.0,57,-99.99,,,-99.99,,2013-02-10 09:57:00,
2013-02-10 05:02:00,5.9,-9.5,-100.00,North,-999,-999.0,-999.0,57,-99.99,,,-99.99,,2013-02-10 10:02:00,
2013-02-10 05:07:00,5.7,-9.7,-100.00,North,-999,-999.0,-999.0,57,-99.99,,,-99.99,,2013-02-10 10:07:00,
2013-02-10 05:12:00,5.2,-9.8,-100.00,North,-999,-999.0,-999.0,58,-99.99,,,-99.99,,2013-02-10 10:12:00,
2013-02-10 05:17:00,4.8,-9.6,-100.00,North,-999,-999.0,-999.0,60,-99.99,,,-99.99,,2013-02-10 10:17:00,
2013-02-10 05:22:00,4.5,-8.2,-100.00,North,-999,-999.0,-999.0,64,-99.99,,,-99.99,,2013-02-10 10:22:00,
2013-02-10 05:27:00,4.3,-8.6,-100.00,North,-999,-999.0,-999.0,64,-99.99,,,-99.99,,2013-02-10 10:27:00,
2013-02-10 05:32:00,4.1,-9.1,-100.00,North,-999,-999.0,-999.0,63,-99.99,,,-99.99,,2013-02-10 10:32:00,
2013-02-10 05:37:00,3.9,-9.4,-100.00,North,-999,-999.0,-999.0,63,-99.99,,,-99.99,,2013-02-10 10:37:00,
2013-02-10 05:42:00,3.9,-9.4,-100.00,North,-999,-999.0,-999.0,63,-99.99,,,-99.99,,2013-02-10 10:42:00,
2013-02-10 05:47:00,3.7,-9.6,-100.00,North,-999,-999.0,-999.0,63,-99.99,,,-99.99,,2013-02-10 10:47:00,
2013-02-10 05:52:00,3.6,-9.7,-100.00,North,-999,-999.0,-999.0,63,-99.99,,,-99.99,,2013-02-10 10:52:00,
2013-02-10 05:57:00,3.4,-9.5,-100.00,North,-999,-999.0,-999.0,64,-99.99,,,-99.99,,2013-02-10 10:57:00,
2013-02-10 06:02:00,3.2,-9.4,-100.00,North,-999,-999.0,-999.0,65,-99.99,,,-99.99,,2013-02-10 11:02:00,
2013-02-10 06:07:00,3.2,-8.9,-100.00,North,-999,-999.0,-999.0,66,-99.99,,,-99.99,,2013-02-10 11:07:00,
2013-02-10 06:12:00,3.0,-9.6,-100.00,North,-999,-999.0,-999.0,65,-99.99,,,-99.99,,2013-02-10 11:12:00,
2013-02-10 06:17:00,2.8,-9.4,-100.00,North,-999,-999.0,-999.0,66,-99.99,,,-99.99,,2013-02-10 11:17:00,
2013-02-10 06:22:00,2.7,-9.2,-100.00,North,-999,-999.0,-999.0,67,-99.99,,,-99.99,,2013-02-10 11:22:00,
2013-02-10 06:27:00,2.5,-9.4,-100.00,North,-999,-999.0,-999.0,67,-99.99,,,-99.99,,2013-02-10 11:27:00,
2013-02-10 06:32:00,2.5,-9.5,-100.00,North,-999,-999.0,-999.0,66,-99.99,,,-99.99,,2013-02-10 11:32:00,
2013-02-10 06:37:00,2.3,-9.7,-100.00,North,-999,-999.0,-999.0,66,-99.99,,,-99.99,,2013-02-10 11:37:00,
2013-02-10 06:42:00,2.1,-8.7,-100.00,North,-999,-999.0,-999.0,70,-99.99,,,-99.99,,2013-02-10 11:42:00,
2013-02-10 06:47:00,1.9,-9.1,-100.00,North,-999,-999.0,-999.0,69,-99.99,,,-99.99,,2013-02-10 11:47:00,
2013-02-10 06:52:00,1.9,-8.8,-100.00,North,-999,-999.0,-999.0,70,-99.99,,,-99.99,,2013-02-10 11:52:00,
2013-02-10 06:57:00,1.9,-8.5,-100.00,North,-999,-999.0,-999.0,71,-99.99,,,-99.99,,2013-02-10 11:57:00,
2013-02-10 07:02:00,1.9,-8.2,-100.00,North,-999,-999.0,-999.0,71,-99.99,,,-99.99,,2013-02-10 12:02:00,
2013-02-10 07:07:00,2.3,-7.5,-100.00,North,-999,-999.0,-999.0,72,-99.99,,,-99.99,,2013-02-10 12:07:00,
2013-02-10 07:12:00,2.3,-7.6,-100.00,North,-999,-999.0,-999.0,72,-99.99,,,-99.99,,2013-02-10 12:12:00,
2013-02-10 07:17:00,2.3,-7.5,-100.00,North,-999,-999.0,-999.0,72,-99.99,,,-99.99,,2013-02-10 12:17:00,
2013-02-10 07:22:00,2.7,-6.4,-100.00,North,-999,-999.0,-999.0,74,-99.99,,,-99.99,,2013-02-10 12:22:00,
2013-02-10 07:27:00,2.8,-6.1,-100.00,North,-999,-999.0,-999.0,75,-99.99,,,-99.99,,2013-02-10 12:27:00,
2013-02-10 07:32:00,2.8,-6.7,-100.00,North,-999,-999.0,-999.0,73,-99.99,,,-99.99,,2013-02-10 12:32:00,
2013-02-10 07:37:00,2.8,-6.9,-100.00,North,-999,-999.0,-999.0,72,-99.99,,,-99.99,,2013-02-10 12:37:00,
2013-02-10 07:42:00,3.0,-6.7,-100.00,North,-999,-999.0,-999.0,73,-99.99,,,-99.99,,2013-02-10 12:42:00,
2013-02-10 07:47:00,3.2,-6.7,-100.00,North,-999,-999.0,-999.0,72,-99.99,,,-99.99,,2013-02-10 12:47:00,
2013-02-10 07:52:00,3.7,-6.2,-100.00,North,-999,-999.0,-999.0,72,-99.99,,,-99.99,,2013-02-10 12:52:00,
2013-02-10 07:57:00,4.5,-5.2,-100.00,North,-999,-999.0,-999.0,73,-99.99,,,-99.99,,2013-02-10 12:57:00,
2013-02-10 08:02:00,5.2,-5.0,-100.00,North,-999,-999.0,-999.0,71,-99.99,,,-99.99,,2013-02-10 13:02:00,
2013-02-10 08:07:00,5.9,-4.4,-100.00,North,-999,-999.0,-999.0,71,-99.99,,,-99.99,,2013-02-10 13:07:00,
2013-02-10 08:12:00,6.6,-4.0,-100.00,North,-999,-999.0,-999.0,70,-99.99,,,-99.99,,2013-02-10 13:12:00,
2013-02-10 08:17:00,7.3,-3.8,-100.00,North,-999,-999.0,-999.0,69,-99.99,,,-99.99,,2013-02-10 13:17:00,
2013-02-10 08:22:00,7.9,-3.5,-100.00,North,-999,-999.0,-999.0,68,-99.99,,,-99.99,,2013-02-10 13:22:00,
2013-02-10 08:27:00,8.4,-3.5,-100.00,North,-999,-999.0,-999.0,67,-99.99,,,-99.99,,2013-02-10 13:27:00,
2013-02-10 08:32:00,8.8,-3.6,-100.00,North,-999,-999.0,-999.0,65,-99.99,,,-99.99,,2013-02-10 13:32:00,
2013-02-10 08:37:00,9.5,-3.4,-100.00,North,-999,-999.0,-999.0,64,-99.99,,,-99.99,,2013-02-10 13:37:00,
2013-02-10 08:42:00,10.0,-3.9,-100.00,North,-999,-999.0,-999.0,61,-99.99,,,-99.99,,2013-02-10 13:42:00,
2013-02-10 08:47:00,10.6,-3.9,-100.00,North,-999,-999.0,-999.0,59,-99.99,,,-99.99,,2013-02-10 13:47:00,
2013-02-10 08:52:00,11.1,-3.5,-100.00,North,-999,-999.0,-999.0,59,-99.99,,,-99.99,,2013-02-10 13:52:00,
2013-02-10 08:57:00,11.7,-3.4,-100.00,North,-999,-999.0,-999.0,58,-99.99,,,-99.99,,2013-02-10 13:57:00,
2013-02-10 09:02:00,12.0,-3.4,-100.00,North,-999,-999.0,-999.0,57,-99.99,,,-99.99,,2013-02-10 14:02:00,
2013-02-10 09:07:00,12.4,-3.1,-100.00,North,-999,-999.0,-999.0,56,-99.99,,,-99.99,,2013-02-10 14:07:00,
2013-02-10 09:12:00,12.9,-2.9,-100.00,North,-999,-999.0,-999.0,56,-99.99,,,-99.99,,2013-02-10 14:12:00,
2013-02-10 09:17:00,13.3,-3.1,-100.00,North,-999,-999.0,-999.0,54,-99.99,,,-99.99,,2013-02-10 14:17:00,
2013-02-10 09:22:00,13.8,-2.6,-100.00,North,-999,-999.0,-999.0,54,-99.99,,,-99.99,,2013-02-10 14:22:00,
2013-02-10 09:27:00,14.4,-2.6,-100.00,North,-999,-999.0,-999.0,52,-99.99,,,-99.99,,2013-02-10 14:27:00,
2013-02-10 09:33:00,14.7,-2.7,-100.00,North,-999,-999.0,-999.0,51,-99.99,,,-99.99,,2013-02-10 14:33:00,
2013-02-10 09:40:00,15.4,-2.2,-100.00,North,-999,-999.0,-999.0,51,-99.99,,,-99.99,,2013-02-10 14:40:00,
2013-02-10 09:45:00,16.0,-99.9,-100.00,North,-999,-999.0,-999.0,49,-99.99,,,-99.99,,2013-02-10 14:45:00,
2013-02-10 09:50:00,16.5,-99.9,-100.00,North,-999,-999.0,-999.0,49,-99.99,,,-99.99,,2013-02-10 14:50:00,
2013-02-10 09:55:00,16.9,-99.9,-100.00,North,-999,-999.0,-999.0,48,-99.99,,,-99.99,,2013-02-10 14:55:00,
2013-02-10 10:00:00,17.4,-99.9,-100.00,North,-999,-999.0,-999.0,45,-99.99,,,-99.99,,2013-02-10 15:00:00,
2013-02-10 10:05:00,18.0,-99.9,-100.00,North,-999,-999.0,-999.0,43,-99.99,,,-99.99,,2013-02-10 15:05:00,
2013-02-10 10:10:00,18.5,-99.9,-100.00,North,-999,-999.0,-999.0,42,-99.99,,,-99.99,,2013-02-10 15:10:00,
2013-02-10 10:15:00,18.9,-99.9,-100.00,North,-999,-999.0,-999.0,42,-99.99,,,-99.99,,2013-02-10 15:15:00,
2013-02-10 10:20:00,19.6,-99.9,-100.00,North,-999,-999.0,-999.0,41,-99.99,,,-99.99,,2013-02-10 15:20:00,
2013-02-10 10:25:00,19.9,-99.9,-100.00,North,-999,-999.0,-999.0,40,-99.99,,,-99.99,,2013-02-10 15:25:00,
2013-02-10 10:30:00,20.5,-99.9,-100.00,North,-999,-999.0,-999.0,40,-99.99,,,-99.99,,2013-02-10 15:30:00,
2013-02-10 10:35:00,21.0,-99.9,-100.00,North,-999,-999.0,-999.0,39,-99.99,,,-99.99,,2013-02-10 15:35:00,
2013-02-10 10:40:00,21.6,-99.9,-100.00,North,-999,-999.0,-999.0,38,-99.99,,,-99.99,,2013-02-10 15:40:00,
2013-02-10 10:45:00,22.3,-99.9,-100.00,North,-999,-999.0,-999.0,34,-99.99,,,-99.99,,2013-02-10 15:45:00,
2013-02-10 10:50:00,22.8,-99.9,-100.00,North,-999,-999.0,-999.0,33,-99.99,,,-99.99,,2013-02-10 15:50:00,
2013-02-10 10:55:00,23.4,-99.9,-100.00,North,-999,-999.0,-999.0,32,-99.99,,,-99.99,,2013-02-10 15:55:00,
2013-02-10 11:00:00,23.7,-99.9,-100.00,North,-999,-999.0,-999.0,33,-99.99,,,-99.99,,2013-02-10 16:00:00,
2013-02-10 11:05:00,23.9,-99.9,-100.00,North,-999,-999.0,-999.0,32,-99.99,,,-99.99,,2013-02-10 16:05:00,
2013-02-10 11:10:00,24.4,-99.9,-100.00,North,-999,-999.0,-999.0,32,-99.99,,,-99.99,,2013-02-10 16:10:00,
2013-02-10 11:15:00,24.8,-99.9,-100.00,North,-999,-999.0,-999.0,32,-99.99,,,-99.99,,2013-02-10 16:15:00,
2013-02-10 11:20:00,25.2,-99.9,-100.00,North,-999,-999.0,-999.0,30,-99.99,,,-99.99,,2013-02-10 16:20:00,
2013-02-10 11:25:00,25.5,-99.9,-100.00,North,-999,-999.0,-999.0,29,-99.99,,,-99.99,,2013-02-10 16:25:00,
2013-02-10 11:30:00,25.9,-99.9,-100.00,North,-999,-999.0,-999.0,30,-99.99,,,-99.99,,2013-02-10 16:30:00,
2013-02-10 11:35:00,26.2,-99.9,-100.00,North,-999,-999.0,-999.0,30,-99.99,,,-99.99,,2013-02-10 16:35:00,
2013-02-10 11:40:00,26.8,-99.9,-100.00,North,-999,-999.0,-999.0,32,-99.99,,,-99.99,,2013-02-10 16:40:00,
2013-02-10 11:45:00,27.0,-99.9,-100.00,North,-999,-999.0,-999.0,33,-99.99,,,-99.99,,2013-02-10 16:45:00,
2013-02-10 11:50:00,27.1,-99.9,-100.00,North,-999,-999.0,-999.0,34,-99.99,,,-99.99,,2013-02-10 16:50:00,
2013-02-10 11:55:00,27.1,-99.9,-100.00,North,-999,-999.0,-999.0,32,-99.99,,,-99.99,,2013-02-10 16:55:00,
2013-02-10 12:00:00,27.5,-99.9,-100.00,North,-999,-999.0,-999.0,32,-99.99,,,-99.99,,2013-02-10 17:00:00,
2013-02-10 12:08:00,28.4,-99.9,-100.00,North,-999,-999.0,-999.0,30,-99.99,,,-99.99,,2013-02-10 17:08:00,
2013-02-10 12:13:00,28.6,-99.9,-100.00,North,-999,-999.0,-999.0,30,-99.99,,,-99.99,,2013-02-10 17:13:00,
2013-02-10 12:18:00,29.1,-99.9,-100.00,North,-999,-999.0,-999.0,30,-99.99,,,-99.99,,2013-02-10 17:18:00,
2013-02-10 12:23:00,29.3,-99.9,-100.00,North,-999,-999.0,-999.0,28,-99.99,,,-99.99,,2013-02-10 17:23:00,
2013-02-10 12:28:00,29.5,-99.9,-100.00,North,-999,-999.0,-999.0,29,-99.99,,,-99.99,,2013-02-10 17:28:00,
2013-02-10 12:33:00,29.8,-99.9,-100.00,North,-999,-999.0,-999.0,26,-99.99,,,-99.99,,2013-02-10 17:33:00,
2013-02-10 12:38:00,30.0,-99.9,-100.00,North,-999,-999.0,-999.0,25,-99.99,,,-99.99,,2013-02-10 17:38:00,
2013-02-10 12:43:00,30.4,-99.9,-100.00,North,-999,-999.0,-999.0,26,-99.99,,,-99.99,,2013-02-10 17:43:00,
2013-02-10 12:48:00,30.7,-99.9,-100.00,North,-999,-999.0,-999.0,26,-99.99,,,-99.99,,2013-02-10 17:48:00,
2013-02-10 12:53:00,30.9,-99.9,-100.00,North,-999,-999.0,-999.0,26,-99.99,,,-99.99,,2013-02-10 17:53:00,
2013-02-10 12:58:00,31.3,-99.9,-100.00,North,-999,-999.0,-999.0,28,-99.99,,,-99.99,,2013-02-10 17:58:00,
2013-02-10 13:03:00,31.5,-99.9,-100.00,North,-999,-999.0,-999.0,25,-99.99,,,-99.99,,2013-02-10 18:03:00,
2013-02-10 13:08:00,31.6,-99.9,-100.00,North,-999,-999.0,-999.0,26,-99.99,,,-99.99,,2013-02-10 18:08:00,
2013-02-10 13:13:00,32.0,-99.9,-100.00,North,-999,-999.0,-999.0,26,-99.99,,,-99.99,,2013-02-10 18:13:00,
2013-02-10 13:18:00,31.8,-99.9,-100.00,North,-999,-999.0,-999.0,25,-99.99,,,-99.99,,2013-02-10 18:18:00,
2013-02-10 13:23:00,32.2,-99.9,-100.00,North,-999,-999.0,-999.0,25,-99.99,,,-99.99,,2013-02-10 18:23:00,
2013-02-10 13:28:00,32.4,-99.9,-100.00,North,-999,-999.0,-999.0,25,-99.99,,,-99.99,,2013-02-10 18:28:00,
2013-02-10 13:33:00,32.5,-99.9,-100.00,North,-999,-999.0,-999.0,25,-99.99,,,-99.99,,2013-02-10 18:33:00,
2013-02-10 13:38:00,32.4,-99.9,-100.00,North,-999,-999.0,-999.0,26,-99.99,,,-99.99,,2013-02-10 18:38:00,
2013-02-10 13:45:00,32.2,-99.9,-100.00,North,-999,-999.0,-999.0,28,-99.99,,,-99.99,,2013-02-10 18:45:00,
2013-02-10 13:50:00,32.2,-99.9,-100.00,North,-999,-999.0,-999.0,25,-99.99,,,-99.99,,2013-02-10 18:50:00,
2013-02-10 13:55:00,32.2,-99.9,-100.00,North,-999,-999.0,-999.0,25,-99.99,,,-99.99,,2013-02-10 18:55:00,
2013-02-10 14:00:00,32.0,-99.9,-100.00,North,-999,-999.0,-999.0,27,-99.99,,,-99.99,,2013-02-10 19:00:00,
2013-02-10 14:05:00,32.2,-99.9,-100.00,North,-999,-999.0,-999.0,27,-99.99,,,-99.99,,2013-02-10 19:05:00,
2013-02-10 14:10:00,32.2,-99.9,-100.00,North,-999,-999.0,-999.0,27,-99.99,,,-99.99,,2013-02-10 19:10:00,
2013-02-10 14:15:00,32.2,-99.9,-100.00,North,-999,-999.0,-999.0,26,-99.99,,,-99.99,,2013-02-10 19:15:00,
2013-02-10 14:20:00,32.2,-99.9,-100.00,North,-999,-999.0,-999.0,27,-99.99,,,-99.99,,2013-02-10 19:20:00,
2013-02-10 14:25:00,32.2,-99.9,-100.00,North,-999,-999.0,-999.0,27,-99.99,,,-99.99,,2013-02-10 19:25:00,
2013-02-10 14:30:00,32.2,-99.9,-100.00,North,-999,-999.0,-999.0,27,-99.99,,,-99.99,,2013-02-10 19:30:00,
2013-02-10 14:35:00,32.2,-99.9,-100.00,North,-999,-999.0,-999.0,28,-99.99,,,-99.99,,2013-02-10 19:35:00,
2013-02-10 14:40:00,32.2,-99.9,-100.00,North,-999,-999.0,-999.0,27,-99.99,,,-99.99,,2013-02-10 19:40:00,
2013-02-10 14:45:00,32.2,-99.9,-100.00,North,-999,-999.0,-999.0,27,-99.99,,,-99.99,,2013-02-10 19:45:00,
2013-02-10 14:50:00,32.0,-99.9,-100.00,North,-999,-999.0,-999.0,27,-99.99,,,-99.99,,2013-02-10 19:50:00,
2013-02-10 14:55:00,32.0,-99.9,-100.00,North,-999,-999.0,-999.0,27,-99.99,,,-99.99,,2013-02-10 19:55:00,
2013-02-10 15:00:00,32.0,-99.9,-100.00,North,-999,-999.0,-999.0,26,-99.99,,,-99.99,,2013-02-10 20:00:00,
2013-02-10 15:05:00,32.0,-99.9,-100.00,North,-999,-999.0,-999.0,27,-99.99,,,-99.99,,2013-02-10 20:05:00,
2013-02-10 15:11:00,31.8,-99.9,-100.00,North,-999,-999.0,-999.0,27,-99.99,,,-99.99,,2013-02-10 20:11:00,
2013-02-10 15:18:00,31.8,-99.9,-100.00,North,-999,-999.0,-999.0,28,-99.99,,,-99.99,,2013-02-10 20:18:00,
2013-02-10 15:23:00,31.6,-99.9,-100.00,North,-999,-999.0,-999.0,28,-99.99,,,-99.99,,2013-02-10 20:23:00,
2013-02-10 15:28:00,31.5,-99.9,-100.00,North,-999,-999.0,-999.0,28,-99.99,,,-99.99,,2013-02-10 20:28:00,
2013-02-10 15:33:00,31.6,-99.9,-100.00,North,-999,-999.0,-999.0,27,-99.99,,,-99.99,,2013-02-10 20:33:00,
2013-02-10 15:38:00,31.6,-99.9,-100.00,North,-999,-999.0,-999.0,27,-99.99,,,-99.99,,2013-02-10 20:38:00,
2013-02-10 15:45:00,31.6,-99.9,-100.00,North,-999,-999.0,-999.0,27,-99.99,,,-99.99,,2013-02-10 20:45:00,
2013-02-10 15:51:00,31.5,-99.9,-100.00,North,-999,-999.0,-999.0,28,-99.99,,,-99.99,,2013-02-10 20:51:00,
2013-02-10 15:56:00,31.3,-99.9,-100.00,North,-999,-999.0,-999.0,29,-99.99,,,-99.99,,2013-02-10 20:56:00,
2013-02-10 16:01:00,31.1,-99.9,-100.00,North,-999,-999.0,-999.0,27,-99.99,,,-99.99,,2013-02-10 21:01:00,
2013-02-10 16:06:00,30.9,-99.9,-100.00,North,-999,-999.0,-999.0,27,-99.99,,,-99.99,,2013-02-10 21:06:00,
2013-02-10 16:11:00,30.7,-99.9,-100.00,North,-999,-999.0,-999.0,28,-99.99,,,-99.99,,2013-02-10 21:11:00,
2013-02-10 16:16:00,30.6,-99.9,-100.00,North,-999,-999.0,-999.0,29,-99.99,,,-99.99,,2013-02-10 21:16:00,
2013-02-10 16:21:00,30.4,-99.9,-100.00,North,-999,-999.0,-999.0,29,-99.99,,,-99.99,,2013-02-10 21:21:00,
2013-02-10 16:26:00,30.0,-99.9,-100.00,North,-999,-999.0,-999.0,29,-99.99,,,-99.99,,2013-02-10 21:26:00,
2013-02-10 16:31:00,29.8,-99.9,-100.00,North,-999,-999.0,-999.0,28,-99.99,,,-99.99,,2013-02-10 21:31:00,
2013-02-10 16:36:00,29.7,-99.9,-100.00,North,-999,-999.0,-999.0,28,-99.99,,,-99.99,,2013-02-10 21:36:00,
2013-02-10 16:41:00,29.3,-99.9,-100.00,North,-999,-999.0,-999.0,29,-99.99,,,-99.99,,2013-02-10 21:41:00,
2013-02-10 16:46:00,29.1,-99.9,-100.00,North,-999,-999.0,-999.0,30,-99.99,,,-99.99,,2013-02-10 21:46:00,
2013-02-10 16:51:00,28.8,-99.9,-100.00,North,-999,-999.0,-999.0,30,-99.99,,,-99.99,,2013-02-10 21:51:00,
2013-02-10 16:56:00,28.4,-99.9,-100.00,North,-999,-999.0,-999.0,31,-99.99,,,-99.99,,2013-02-10 21:56:00,
2013-02-10 17:01:00,28.0,-99.9,-100.00,North,-999,-999.0,-999.0,31,-99.99,,,-99.99,,2013-02-10 22:01:00,
2013-02-10 17:06:00,27.7,-99.9,-100.00,North,-999,-999.0,-999.0,30,-99.99,,,-99.99,,2013-02-10 22:06:00,
2013-02-10 17:13:00,27.1,-99.9,-100.00,North,-999,-999.0,-999.0,30,-99.99,,,-99.99,,2013-02-10 22:13:00,
2013-02-10 17:18:00,26.8,-99.9,-100.00,North,-999,-999.0,-999.0,30,-99.99,,,-99.99,,2013-02-10 22:18:00,
2013-02-10 17:23:00,26.6,-99.9,-100.00,North,-999,-999.0,-999.0,30,-99.99,,,-99.99,,2013-02-10 22:23:00,
2013-02-10 17:28:00,26.2,-99.9,-100.00,North,-999,-999.0,-999.0,31,-99.99,,,-99.99,,2013-02-10 22:28:00,
2013-02-10 17:33:00,25.9,-99.9,-100.00,North,-999,-999.0,-999.0,32,-99.99,,,-99.99,,2013-02-10 22:33:00,
2013-02-10 17:38:00,25.5,-99.9,-100.00,North,-999,-999.0,-999.0,33,-99.99,,,-99.99,,2013-02-10 22:38:00,
2013-02-10 17:43:00,25.3,-99.9,-100.00,North,-999,-999.0,-999.0,33,-99.99,,,-99.99,,2013-02-10 22:43:00,
2013-02-10 17:48:00,25.0,-99.9,-100.00,North,-999,-999.0,-999.0,34,-99.99,,,-99.99,,2013-02-10 22:48:00,
2013-02-10 17:53:00,24.8,-99.9,-100.00,North,-999,-999.0,-999.0,34,-99.99,,,-99.99,,2013-02-10 22:53:00,
2013-02-10 17:58:00,24.4,-99.9,-100.00,North,-999,-999.0,-999.0,35,-99.99,,,-99.99,,2013-02-10 22:58:00,
2013-02-10 18:03:00,24.3,-99.9,-100.00,North,-999,-999.0,-999.0,35,-99.99,,,-99.99,,2013-02-10 23:03:00,
2013-02-10 18:08:00,24.1,-99.9,-100.00,North,-999,-999.0,-999.0,35,-99.99,,,-99.99,,2013-02-10 23:08:00,
2013-02-10 18:13:00,23.9,-99.9,-100.00,North,-999,-999.0,-999.0,34,-99.99,,,-99.99,,2013-02-10 23:13:00,
2013-02-10 18:18:00,23.7,-99.9,-100.00,North,-999,-999.0,-999.0,33,-99.99,,,-99.99,,2013-02-10 23:18:00,
2013-02-10 18:23:00,23.5,-99.9,-100.00,North,-999,-999.0,-999.0,34,-99.99,,,-99.99,,2013-02-10 23:23:00,
2013-02-10 18:28:00,23.4,-99.9,-100.00,North,-999,-999.0,-999.0,35,-99.99,,,-99.99,,2013-02-10 23:28:00,
2013-02-10 18:33:00,23.2,-99.9,-100.00,North,-999,-999.0,-999.0,35,-99.99,,,-99.99,,2013-02-10 23:33:00,
2013-02-10 18:38:00,23.0,-99.9,-100.00,North,-999,-999.0,-999.0,35,-99.99,,,-99.99,,2013-02-10 23:38:00,
2013-02-10 18:43:00,22.8,-99.9,-100.00,North,-999,-999.0,-999.0,35,-99.99,,,-99.99,,2013-02-10 23:43:00,
2013-02-10 18:48:00,22.6,-99.9,-100.00,North,-999,-999.0,-999.0,35,-99.99,,,-99.99,,2013-02-10 23:48:00,
2013-02-10 18:53:00,22.5,-99.9,-100.00,North,-999,-999.0,-999.0,35,-99.99,,,-99.99,,2013-02-10 23:53:00,
2013-02-10 18:58:00,22.3,-99.9,-100.00,North,-999,-999.0,-999.0,35,-99.99,,,-99.99,,2013-02-10 23:58:00,
2013-02-10 19:03:00,22.1,-99.9,-100.00,North,-999,-999.0,-999.0,36,-99.99,,,-99.99,,2013-02-11 00:03:00,
2013-02-10 19:08:00,21.9,-99.9,-100.00,North,-999,-999.0,-999.0,35,-99.99,,,-99.99,,2013-02-11 00:08:00,
2013-02-10 19:13:00,21.7,-99.9,-100.00,North,-999,-999.0,-999.0,36,-99.99,,,-99.99,,2013-02-11 00:13:00,
2013-02-10 19:18:00,21.6,-99.9,-100.00,North,-999,-999.0,-999.0,36,-99.99,,,-99.99,,2013-02-11 00:18:00,
2013-02-10 19:23:00,21.6,-99.9,-100.00,North,-999,-999.0,-999.0,36,-99.99,,,-99.99,,2013-02-11 00:23:00,
2013-02-10 19:28:00,21.4,-99.9,-100.00,North,-999,-999.0,-999.0,37,-99.99,,,-99.99,,2013-02-11 00:28:00,
2013-02-10 19:33:00,21.4,-99.9,-100.00,North,-999,-999.0,-999.0,39,-99.99,,,-99.99,,2013-02-11 00:33:00,
2013-02-10 19:38:00,21.0,-99.9,-100.00,North,-999,-999.0,-999.0,39,-99.99,,,-99.99,,2013-02-11 00:38:00,
2013-02-10 19:43:00,20.8,-99.9,-100.00,North,-999,-999.0,-999.0,39,-99.99,,,-99.99,,2013-02-11 00:43:00,
2013-02-10 19:48:00,20.7,-99.9,-100.00,North,-999,-999.0,-999.0,39,-99.99,,,-99.99,,2013-02-11 00:48:00,
2013-02-10 19:53:00,20.5,-99.9,-100.00,North,-999,-999.0,-999.0,42,-99.99,,,-99.99,,2013-02-11 00:53:00,
2013-02-10 19:58:00,20.5,-99.9,-100.00,North,-999,-999.0,-999.0,41,-99.99,,,-99.99,,2013-02-11 00:58:00,
2013-02-10 20:03:00,20.3,-99.9,-100.00,North,-999,-999.0,-999.0,40,-99.99,,,-99.99,,2013-02-11 01:03:00,
2013-02-10 20:08:00,20.1,-99.9,-100.00,North,-999,-999.0,-999.0,41,-99.99,,,-99.99,,2013-02-11 01:08:00,
2013-02-10 20:13:00,19.8,-99.9,-100.00,North,-999,-999.0,-999.0,43,-99.99,,,-99.99,,2013-02-11 01:13:00,
2013-02-10 20:18:00,19.8,-99.9,-100.00,North,-999,-999.0,-999.0,42,-99.99,,,-99.99,,2013-02-11 01:18:00,
2013-02-10 20:23:00,19.6,-99.9,-100.00,North,-999,-999.0,-999.0,45,-99.99,,,-99.99,,2013-02-11 01:23:00,
2013-02-10 20:28:00,19.4,-99.9,-100.00,North,-999,-999.0,-999.0,43,-99.99,,,-99.99,,2013-02-11 01:28:00,
2013-02-10 20:33:00,19.2,-99.9,-100.00,North,-999,-999.0,-999.0,44,-99.99,,,-99.99,,2013-02-11 01:33:00,
2013-02-10 20:38:00,19.0,-99.9,-100.00,North,-999,-999.0,-999.0,45,-99.99,,,-99.99,,2013-02-11 01:38:00,
2013-02-10 20:43:00,18.9,-99.9,-100.00,North,-999,-999.0,-999.0,44,-99.99,,,-99.99,,2013-02-11 01:43:00,
2013-02-10 20:48:00,18.7,-99.9,-100.00,North,-999,-999.0,-999.0,44,-99.99,,,-99.99,,2013-02-11 01:48:00,
2013-02-10 20:53:00,18.5,-99.9,-100.00,North,-999,-999.0,-999.0,44,-99.99,,,-99.99,,2013-02-11 01:53:00,
2013-02-10 20:58:00,18.5,-99.9,-100.00,North,-999,-999.0,-999.0,44,-99.99,,,-99.99,,2013-02-11 01:58:00,
2013-02-10 21:03:00,18.1,-99.9,-100.00,North,-999,-999.0,-999.0,47,-99.99,,,-99.99,,2013-02-11 02:03:00,
2013-02-10 21:08:00,18.0,-99.9,-100.00,North,-999,-999.0,-999.0,47,-99.99,,,-99.99,,2013-02-11 02:08:00,
2013-02-10 21:13:00,18.0,-99.9,-100.00,North,-999,-999.0,-999.0,48,-99.99,,,-99.99,,2013-02-11 02:13:00,
2013-02-10 21:18:00,17.8,-99.9,-100.00,North,-999,-999.0,-999.0,47,-99.99,,,-99.99,,2013-02-11 02:18:00,
2013-02-10 21:23:00,17.4,-99.9,-100.00,North,-999,-999.0,-999.0,48,-99.99,,,-99.99,,2013-02-11 02:23:00,
2013-02-10 21:28:00,17.4,-99.9,-100.00,North,-999,-999.0,-999.0,45,-99.99,,,-99.99,,2013-02-11 02:28:00,
2013-02-10 21:33:00,17.2,-99.9,-100.00,North,-999,-999.0,-999.0,46,-99.99,,,-99.99,,2013-02-11 02:33:00,
2013-02-10 21:38:00,17.2,-99.9,-100.00,North,-999,-999.0,-999.0,47,-99.99,,,-99.99,,2013-02-11 02:38:00,
2013-02-10 21:43:00,17.1,-99.9,-100.00,North,-999,-999.0,-999.0,47,-99.99,,,-99.99,,2013-02-11 02:43:00,
2013-02-10 21:48:00,16.9,-99.9,-100.00,North,-999,-999.0,-999.0,48,-99.99,,,-99.99,,2013-02-11 02:48:00,
2013-02-10 21:54:00,16.7,-1.1,-100.00,North,-999,-999.0,-999.0,50,-99.99,,,-99.99,,2013-02-11 02:54:00,
2013-02-10 21:59:00,16.5,-1.3,-100.00,North,-999,-999.0,-999.0,50,-99.99,,,-99.99,,2013-02-11 02:59:00,
2013-02-10 22:04:00,16.5,-0.5,-100.00,North,-999,-999.0,-999.0,52,-99.99,,,-99.99,,2013-02-11 03:04:00,
2013-02-10 22:09:00,16.3,-0.6,-100.00,North,-999,-999.0,-999.0,53,-99.99,,,-99.99,,2013-02-11 03:09:00,
2013-02-10 22:14:00,16.3,-0.5,-100.00,North,-999,-999.0,-999.0,53,-99.99,,,-99.99,,2013-02-11 03:14:00,
2013-02-10 22:19:00,16.2,-0.2,-100.00,North,-999,-999.0,-999.0,54,-99.99,,,-99.99,,2013-02-11 03:19:00,
2013-02-10 22:24:00,16.2,-0.2,-100.00,North,-999,-999.0,-999.0,54,-99.99,,,-99.99,,2013-02-11 03:24:00,
2013-02-10 22:29:00,16.0,-0.7,-100.00,North,-999,-999.0,-999.0,53,-99.99,,,-99.99,,2013-02-11 03:29:00,
2013-02-10 22:34:00,15.8,0.0,-100.00,North,-999,-999.0,-999.0,56,-99.99,,,-99.99,,2013-02-11 03:34:00,
2013-02-10 22:39:00,15.6,-0.9,-100.00,North,-999,-999.0,-999.0,54,-99.99,,,-99.99,,2013-02-11 03:39:00,
2013-02-10 22:44:00,15.4,-0.9,-100.00,North,-999,-999.0,-999.0,54,-99.99,,,-99.99,,2013-02-11 03:44:00,
2013-02-10 22:49:00,15.3,-0.7,-100.00,North,-999,-999.0,-999.0,55,-99.99,,,-99.99,,2013-02-11 03:49:00,
2013-02-10 22:54:00,15.3,-1.0,-100.00,North,-999,-999.0,-999.0,54,-99.99,,,-99.99,,2013-02-11 03:54:00,
2013-02-10 22:59:00,15.1,-1.4,-100.00,North,-999,-999.0,-999.0,54,-99.99,,,-99.99,,2013-02-11 03:59:00,
2013-02-10 23:04:00,15.1,-1.0,-100.00,North,-999,-999.0,-999.0,55,-99.99,,,-99.99,,2013-02-11 04:04:00,
2013-02-10 23:09:00,15.1,-0.9,-100.00,North,-999,-999.0,-999.0,55,-99.99,,,-99.99,,2013-02-11 04:09:00,
2013-02-10 23:14:00,15.1,-0.8,-100.00,North,-999,-999.0,-999.0,55,-99.99,,,-99.99,,2013-02-11 04:14:00,
2013-02-10 23:19:00,15.1,0.0,-100.00,North,-999,-999.0,-999.0,58,-99.99,,,-99.99,,2013-02-11 04:19:00,
2013-02-10 23:24:00,14.9,1.3,-100.00,North,-999,-999.0,-999.0,62,-99.99,,,-99.99,,2013-02-11 04:24:00,
2013-02-10 23:29:00,14.9,2.0,-100.00,North,-999,-999.0,-999.0,64,-99.99,,,-99.99,,2013-02-11 04:29:00,
2013-02-10 23:34:00,14.9,1.1,-100.00,North,-999,-999.0,-999.0,61,-99.99,,,-99.99,,2013-02-11 04:34:00,
2013-02-10 23:39:00,14.9,2.0,-100.00,North,-999,-999.0,-999.0,64,-99.99,,,-99.99,,2013-02-11 04:39:00,
2013-02-10 23:44:00,14.9,0.9,-100.00,North,-999,-999.0,-999.0,61,-99.99,,,-99.99,,2013-02-11 04:44:00,
2013-02-10 23:49:00,14.7,0.3,-100.00,North,-999,-999.0,-999.0,60,-99.99,,,-99.99,,2013-02-11 04:49:00,
2013-02-10 23:54:00,14.7,2.0,-100.00,North,-999,-999.0,-999.0,64,-99.99,,,-99.99,,2013-02-11 04:54:00,
2013-02-10 23:59:00,14.5,2.9,-100.00,North,-999,-999.0,-999.0,67,-99.99,,,-99.99,,2013-02-11 04:59:00,